Weather observations for the past three days for
Uvalde, Garner Field Airport
| Date | Time (cdt) | Wind (mph) | Vis. (mi.) | Weather | Sky Cond. | Temperature (ºF) | Relative Humidity | Wind Chill (°F) | Heat Index (°F) | Pressure | Precipitation (in) | ||||||
|---|---|---|---|---|---|---|---|---|---|---|---|---|---|---|---|---|---|
| Air | Dwpt | 6 hour | altimeter (in) | sea level (mb) | 1 hr | 3 hr | 6 hr | ||||||||||
| Max. | Min. | ||||||||||||||||
| 08 | 12:15 | NE 8 | 10.00 | Overcast | OVC009 | 69.3 | 64.4 | 85% | 29.88 | 0.0 | |||||||
| 08 | 11:55 | NE 3 | 10.00 | Overcast | OVC008 | 67.1 | 63.5 | 88% | 29.9 | 0.0 | |||||||
| 08 | 11:35 | E 7 | 10.00 | Overcast | OVC008 | 66.6 | 63 | 88% | 29.91 | 0.0 | |||||||
| 08 | 11:15 | E 6 | 10.00 | Overcast | OVC007 | 66 | 62.6 | 89% | 29.91 | 0.0 | |||||||
| 08 | 10:55 | E 9 | 10.00 | Overcast | OVC007 | 65.5 | 62.2 | 89% | 29.92 | 0.0 | |||||||
| 08 | 10:35 | E 8 | 10.00 | Overcast | OVC008 | 64.8 | 61.9 | 90% | 29.92 | 0.0 | |||||||
| 08 | 10:15 | NE 9 | 9.00 | Overcast | OVC009 | 64.8 | 61.5 | 89% | 29.92 | 0.0 | |||||||
| 08 | 09:55 | NE 6 | 9.00 | Overcast | OVC011 | 64.6 | 61 | 88% | 29.94 | 0.0 | |||||||
| 08 | 09:35 | NE 3 | 9.00 | Overcast | OVC012 | 64.2 | 60.4 | 88% | 29.94 | 0.0 | |||||||
| 08 | 09:15 | NE 8 | 9.00 | Overcast | OVC012 | 64.4 | 60.4 | 87% | 29.94 | 0.0 | |||||||
| 08 | 08:55 | E 5 | 9.00 | Overcast | OVC013 | 64 | 60.3 | 88% | 29.93 | 0.0 | |||||||
| 08 | 08:35 | E 3 | 8.00 | Overcast | OVC013 | 64 | 60.3 | 88% | 29.94 | 0.0 | |||||||
| 08 | 08:15 | E 7 | 9.00 | Light Rain | OVC014 | 63.9 | 60.3 | 88% | 29.94 | 0.0 | |||||||
| 08 | 07:55 | E 5 | 9.00 | Overcast | OVC014 | 63.9 | 60.3 | 88% | 29.93 | 0.0 | |||||||
| 08 | 07:35 | NE 5 | 9.00 | Overcast | OVC013 | 63.5 | 60.3 | 89% | 29.93 | 0.0 | |||||||
| 08 | 07:15 | NE 6 | 9.00 | Overcast | OVC012 | 63.5 | 60.1 | 89% | 29.92 | 0.0 | |||||||
| 08 | 06:55 | NE 8 | 10.00 | Overcast | OVC012 | 63.9 | 59.9 | 66.6 | 63.7 | 87% | 29.91 | 0.0 | |||||
| 08 | 06:35 | E 7 | 9.00 | Light Rain | OVC013 | 64 | 60.1 | 87% | 29.92 | 0.0 | |||||||
| 08 | 06:15 | E 6 | 10.00 | Overcast | OVC013 | 64.4 | 59.4 | 84% | 29.93 | 0.0 | |||||||
| 08 | 05:55 | E 3 | 10.00 | Overcast | OVC013 | 64.6 | 59.2 | 83% | 29.93 | 0.0 | |||||||
| 08 | 05:35 | E 3 | 10.00 | Overcast | OVC013 | 64.8 | 59.5 | 83% | 29.93 | 0.0 | |||||||
| 08 | 05:15 | E 6 | 10.00 | Overcast | OVC015 | 65.1 | 58.6 | 80% | 29.93 | 0.0 | |||||||
| 08 | 04:55 | Calm | 10.00 | Overcast | OVC014 | 64.6 | 58.6 | 81% | 29.92 | 0.0 | |||||||
| 08 | 04:35 | NE 5 | 10.00 | Overcast | OVC018 | 64.4 | 58.8 | 82% | 29.93 | 0.0 | |||||||
| 08 | 04:15 | Calm | 8.00 | Light Rain | OVC019 | 64.8 | 59.2 | 82% | 29.94 | 0.0 | |||||||
| 08 | 03:55 | E 3 | 9.00 | Light Rain | OVC016 | 65.5 | 58.5 | 78% | 29.93 | 0.0 | |||||||
| 08 | 03:35 | E 3 | 10.00 | Overcast | OVC018 | 65.7 | 58.1 | 77% | 29.94 | 0.0 | |||||||
| 08 | 03:15 | E 3 | 9.00 | Light Rain | OVC019 | 65.8 | 57.9 | 76% | 29.94 | 0.0 | |||||||
| 08 | 02:55 | E 6 | 10.00 | Overcast | OVC018 | 66.4 | 57.6 | 73% | 29.94 | 0.0 | |||||||
| 08 | 02:35 | SE 8 | 10.00 | Overcast | OVC020 | 66.4 | 58.8 | 77% | 29.94 | 0.0 | |||||||
| 08 | 02:15 | E 3 | 10.00 | Overcast | OVC019 | 66 | 57.7 | 75% | 29.96 | 0.0 | |||||||
| 08 | 01:55 | E 5 | 10.00 | Overcast | OVC019 | 66.2 | 57.4 | 73% | 29.96 | 0.0 | |||||||
| 08 | 01:35 | E 6 | 10.00 | Overcast | OVC020 | 66.4 | 57.4 | 73% | 29.96 | 0.0 | |||||||
| 08 | 01:15 | NE 6 | 10.00 | Overcast | OVC020 | 66 | 57.9 | 75% | 29.96 | 0.0 | |||||||
| 08 | 00:55 | NE 8 | 10.00 | Overcast | OVC022 | 66.2 | 57.9 | 68.7 | 66 | 75% | 29.96 | 0.0 | |||||
| 08 | 00:35 | NE 6 | 10.00 | Overcast | OVC023 | 66 | 57.9 | 75% | 29.96 | 0.0 | |||||||
| 08 | 00:15 | NE 7 | 10.00 | Overcast | OVC022 | 66.2 | 57.7 | 74% | 29.96 | 0.0 | |||||||
| 07 | 23:55 | E 10 | 10.00 | Overcast | OVC020 | 66 | 58.8 | 78% | 29.93 | 0.0 | |||||||
| 07 | 23:35 | NE 6 | 10.00 | Overcast | OVC024 | 66.2 | 59.7 | 80% | 29.98 | 0.0 | |||||||
| 07 | 23:15 | Calm | 10.00 | Overcast | OVC025 | 66.2 | 59.4 | 79% | 30 | 0.0 | |||||||
| 07 | 22:55 | Calm | 10.00 | Overcast | OVC024 | 66.4 | 58.8 | 77% | 29.98 | 0.0 | |||||||
| 07 | 22:35 | N 5 | 10.00 | Overcast | OVC024 | 66.4 | 58.6 | 76% | 29.97 | 0.0 | |||||||
| 07 | 22:15 | NE 5 | 10.00 | Overcast | OVC024 | 66.2 | 58.8 | 77% | 29.96 | 0.0 | |||||||
| 07 | 21:55 | NE 5 | 10.00 | Overcast | OVC025 | 66.2 | 58.8 | 77% | 29.95 | 0.0 | |||||||
| 07 | 21:35 | N 6 | 10.00 | Overcast | OVC026 | 66.6 | 59 | 77% | 29.96 | 0.0 | |||||||
| 07 | 21:15 | NE 5 | 10.00 | Overcast | OVC027 | 67.1 | 61 | 81% | 29.94 | 0.0 | |||||||
| 07 | 20:55 | Calm | 10.00 | Overcast | OVC028 | 67.6 | 59.4 | 75% | 29.95 | 0.0 | |||||||
| 07 | 20:35 | Calm | 10.00 | Overcast | OVC028 | 68.4 | 59 | 72% | 29.95 | 0.0 | |||||||
| 07 | 20:15 | Calm | 8.00 | Overcast | OVC028 | 68.4 | 59.2 | 73% | 29.96 | 0.0 | |||||||
| 07 | 19:55 | Calm | 9.00 | Overcast | OVC027 | 68.5 | 57.6 | 68% | 29.96 | 0.0 | |||||||
| 07 | 19:35 | N 3 | 10.00 | Overcast | OVC024 | 68.5 | 57.4 | 68% | 29.95 | 0.0 | |||||||
| 07 | 19:15 | NE 6 | 10.00 | Overcast | OVC023 | 68.4 | 57.6 | 69% | 29.93 | 0.0 | |||||||
| 07 | 18:55 | N 6 | 10.00 | Mostly Cloudy | BKN022 BKN190 | 68 | 57.6 | 69.1 | 64.6 | 69% | 29.93 | 0.0 | |||||
| 07 | 18:35 | NE 5 | 10.00 | Partly Cloudy | SCT200 | 68 | 57.4 | 69% | 29.91 | 0.0 | |||||||
| 07 | 18:15 | E 13 | 10.00 | Mostly Cloudy | FEW022 BKN190 | 67.8 | 57.4 | 69% | 29.9 | 0.0 | |||||||
| 07 | 17:55 | E 12 | 10.00 | A Few Clouds | FEW022 | 68.2 | 57.7 | 69% | 29.93 | 0.0 | |||||||
| 07 | 17:35 | E 10 | 10.00 | Mostly Cloudy | BKN022 | 67.6 | 57.7 | 71% | 29.94 | 0.0 | |||||||
| 07 | 17:15 | E 8 | 10.00 | Overcast | OVC022 | 68 | 58.1 | 71% | 29.96 | 0.0 | |||||||
| 07 | 16:55 | NE 8 | 10.00 | Overcast | OVC023 | 68 | 57.6 | 69% | 29.98 | 0.0 | |||||||
| 07 | 16:35 | E 8 | 10.00 | Overcast | OVC022 | 68.2 | 58.1 | 70% | 29.98 | 0.0 | |||||||
| 07 | 16:15 | NE 13 | 10.00 | Overcast | OVC023 | 68.5 | 58.5 | 70% | 29.98 | 0.0 | |||||||
| 07 | 15:55 | E 9 | 10.00 | Mostly Cloudy | BKN022 | 67.3 | 57.6 | 71% | 29.99 | 0.0 | |||||||
| 07 | 15:35 | NE 8 | 9.00 | Overcast | OVC023 | 66.7 | 57.6 | 72% | 30.01 | 0.0 | |||||||
| 07 | 15:15 | N 10 | 9.00 | Overcast | OVC021 | 66.2 | 57.6 | 74% | 30.02 | 0.0 | |||||||
| 07 | 14:55 | NE 7 | 10.00 | Overcast | OVC021 | 66 | 57.6 | 74% | 30.01 | 0.0 | |||||||
| 07 | 14:35 | N 7 | 10.00 | Overcast | OVC022 | 65.5 | 57 | 74% | 30.02 | 0.0 | |||||||
| 07 | 14:15 | NE 7 | 10.00 | Overcast | OVC021 | 66.2 | 57.2 | 73% | 30.02 | 0.0 | |||||||
| 07 | 13:55 | E 7 | 9.00 | Overcast | OVC021 | 65.8 | 57.7 | 75% | 30.03 | 0.0 | |||||||
| 07 | 13:35 | NE 8 | 9.00 | Overcast | OVC020 | 65.3 | 57.6 | 76% | 30.02 | 0.0 | |||||||
| 07 | 13:15 | NE 9 | 8.00 | Light Rain | OVC019 | 64.8 | 57.4 | 77% | 30.03 | 0.0 | |||||||
| 07 | 12:55 | NE 8 | 9.00 | Overcast | OVC017 | 65.3 | 57.9 | 67.1 | 63.5 | 77% | 30.03 | 0.0 | |||||
| 07 | 12:35 | E 12 | 10.00 | Overcast | OVC016 | 66.4 | 58.3 | 75% | 30.01 | 0.0 | |||||||
| 07 | 12:15 | E 14 | 9.00 | Overcast | OVC014 | 64.6 | 58.3 | 80% | 30.02 | 0.0 | |||||||
| 07 | 11:55 | E 10 | 9.00 | Overcast | OVC013 | 64 | 58.6 | 83% | 30.04 | 0.0 | |||||||
| 07 | 11:35 | NE 12 | 9.00 | Overcast | OVC013 | 63.9 | 58.5 | 83% | 30.04 | 0.0 | |||||||
| 07 | 11:15 | NE 13 | 9.00 | Overcast | OVC013 | 63.7 | 58.6 | 84% | 30.02 | 0.0 | |||||||
| 07 | 10:55 | NE 14 | 8.00 | Overcast | OVC014 | 64 | 58.8 | 83% | 30.02 | 0.0 | |||||||
| 07 | 10:35 | NE 13 | 9.00 | Overcast | OVC015 | 64.2 | 58.5 | 82% | 30.02 | 0.0 | |||||||
| 07 | 10:15 | NE 14 | 8.00 | Overcast | OVC015 | 65.3 | 59.2 | 81% | 30.01 | 0.0 | |||||||
| 07 | 09:55 | NE 9 | 9.00 | Overcast | OVC014 | 65.7 | 59.4 | 80% | 30 | 0.0 | |||||||
| 07 | 09:35 | NE 13 | 9.00 | Overcast | OVC013 | 65.5 | 59.2 | 80% | 29.98 | 0.0 | |||||||
| 07 | 09:15 | NE 10 | 9.00 | Overcast | OVC013 | 66.4 | 60.3 | 81% | 30 | 0.0 | |||||||
| 07 | 08:55 | E 9 | 9.00 | Overcast | OVC014 | 66.6 | 60.3 | 80% | 30 | 0.0 | |||||||
| 07 | 08:35 | NE 10 | 9.00 | Overcast | OVC014 | 66.9 | 60.3 | 79% | 30 | 0.0 | |||||||
| 07 | 08:15 | NE 9 | 9.00 | Overcast | OVC013 | 66.7 | 60.4 | 80% | 30 | 0.0 | |||||||
| 07 | 07:55 | NE 13 | 9.00 | Overcast | OVC013 | 66.7 | 60.4 | 80% | 29.95 | 0.0 | |||||||
| 07 | 07:35 | E 12 | 9.00 | Overcast | OVC014 | 66.7 | 60.8 | 81% | 29.95 | 0.0 | |||||||
| 07 | 07:15 | E 10 | 9.00 | Overcast | OVC015 | 66.9 | 60.8 | 81% | 29.98 | 0.0 | |||||||
| 07 | 06:55 | E 7 | 10.00 | Overcast | OVC014 | 66.9 | 60.6 | 66.9 | 65.8 | 80% | 29.97 | 0.0 | |||||
| 07 | 06:35 | E 9 | 10.00 | Overcast | OVC014 | 66.9 | 60.6 | 80% | 29.96 | 0.0 | |||||||
| 07 | 06:15 | E 7 | 10.00 | Overcast | OVC013 | 66.9 | 60.6 | 80% | 29.95 | 0.0 | |||||||
| 07 | 05:55 | NE 8 | 10.00 | Overcast | OVC013 | 66.7 | 60.4 | 80% | 29.94 | 0.0 | |||||||
| 07 | 05:35 | NE 10 | 10.00 | Overcast | OVC015 | 66.7 | 60.1 | 79% | 29.94 | 0.0 | |||||||
| 07 | 05:15 | NE 12 | 10.00 | Overcast | OVC016 | 66.6 | 60.4 | 81% | 29.94 | 0.0 | |||||||
| 07 | 04:55 | NE 10 | 10.00 | Overcast | OVC014 | 66.4 | 60.8 | 82% | 29.93 | 0.0 | |||||||
| 07 | 04:35 | NE 13 | 10.00 | Overcast | OVC014 | 66.2 | 60.6 | 82% | 29.93 | 0.0 | |||||||
| 07 | 04:15 | NE 10 | 10.00 | Overcast | OVC015 | 66.2 | 60.8 | 83% | 29.94 | 0.0 | |||||||
| 07 | 03:55 | NE 9 | 10.00 | Overcast | OVC016 | 66.2 | 60.8 | 83% | 29.93 | 0.0 | |||||||
| 07 | 03:35 | NE 7 | 10.00 | Overcast | OVC017 | 66.2 | 60.6 | 82% | 29.94 | 0.0 | |||||||
| 07 | 03:15 | NE 9 | 10.00 | Overcast | OVC017 | 66.2 | 60.4 | 82% | 29.95 | 0.0 | |||||||
| 07 | 02:55 | E 9 | 10.00 | Overcast | OVC019 | 66.2 | 60.3 | 81% | 29.96 | 0.0 | |||||||
| 07 | 02:35 | E 12 | 10.00 | Overcast | OVC019 | 66.4 | 60.4 | 81% | 29.97 | 0.0 | |||||||
| 07 | 02:15 | E 9 | 10.00 | Overcast | OVC019 | 66.4 | 60.4 | 81% | 29.97 | 0.0 | |||||||
| 07 | 01:55 | E 9 | 10.00 | Overcast | OVC019 | 66.4 | 60.6 | 82% | 29.96 | 0.0 | |||||||
| 07 | 01:35 | E 8 | 10.00 | Mostly Cloudy | BKN021 BKN210 | 66.2 | 60.6 | 82% | 29.97 | 0.0 | |||||||
| 07 | 01:15 | E 7 | 10.00 | Partly Cloudy | SCT210 | 66 | 61.2 | 84% | 29.96 | 0.0 | |||||||
| 07 | 00:55 | E 3 | 10.00 | Fair | CLR | 66.4 | 62.1 | 81.7 | 66.2 | 86% | 29.95 | 0.0 | |||||
| 07 | 00:35 | E 6 | 10.00 | A Few Clouds | FEW210 | 66.4 | 61.7 | 85% | 29.94 | 0.0 | |||||||
| 07 | 00:15 | E 5 | 10.00 | Mostly Cloudy | BKN210 | 67.3 | 61.3 | 81% | 29.93 | 0.0 | |||||||
| 06 | 23:55 | NE 10 | 10.00 | Mostly Cloudy | BKN200 | 67.6 | 61.5 | 81% | 29.91 | 0.0 | |||||||
| 06 | 23:35 | NE 12 | 10.00 | Mostly Cloudy | BKN200 | 67.8 | 62.1 | 82% | 29.9 | 0.0 | |||||||
| 06 | 23:15 | E 9 | 10.00 | Mostly Cloudy | BKN200 | 68.2 | 62.1 | 81% | 29.9 | 0.0 | |||||||
| 06 | 22:55 | NE 9 | 10.00 | Partly Cloudy | SCT200 | 68.5 | 62.1 | 80% | 29.9 | 0.0 | |||||||
| 06 | 22:35 | NE 10 | 10.00 | Partly Cloudy | SCT230 | 68.7 | 62.2 | 80% | 29.89 | 0.0 | |||||||
| 06 | 22:15 | NE 13 | 10.00 | Mostly Cloudy | BKN230 | 69.3 | 62.4 | 79% | 29.88 | 0.0 | |||||||
| 06 | 21:55 | NE 12 | 10.00 | Mostly Cloudy | BKN220 | 70 | 62.6 | 78% | 29.87 | 0.0 | |||||||
| 06 | 21:35 | NE 12 | 10.00 | Mostly Cloudy | BKN220 | 70.7 | 63.1 | 77% | 29.88 | 0.0 | |||||||
| 06 | 21:15 | NE 12 | 10.00 | Mostly Cloudy | BKN230 | 71.6 | 64 | 77% | 29.87 | 0.0 | |||||||
| 06 | 20:55 | NE 12 | 10.00 | Mostly Cloudy | BKN240 | 72.9 | 64.8 | 76% | 29.86 | 0.0 | |||||||
| 06 | 20:35 | NE 12 | 10.00 | Mostly Cloudy | BKN250 | 73.9 | 65.3 | 75% | 29.85 | 0.0 | |||||||
| 06 | 20:15 | NE 12 | 10.00 | A Few Clouds | FEW240 | 75 | 66.2 | 74% | 76 | 29.84 | 0.0 | ||||||
| 06 | 19:55 | NE 12 | 9.00 | Partly Cloudy | SCT240 | 77.7 | 68.7 | 74% | 80 | 29.82 | 0.0 | ||||||
| 06 | 19:35 | NE 13 | 9.00 | A Few Clouds | FEW250 | 79.5 | 70.2 | 73% | 83 | 29.82 | 0.0 | ||||||
| 06 | 19:15 | N 13 | 9.00 | A Few Clouds | FEW240 | 81 | 70.9 | 72% | 85 | 29.82 | 0.0 | ||||||
| 06 | 18:55 | NE 9 | 9.00 | A Few Clouds | FEW220 | 82.2 | 70.9 | 86.5 | 78.3 | 69% | 87 | 29.81 | 0.0 | ||||
| 06 | 18:35 | N 10 | 10.00 | Partly Cloudy | SCT220 | 82.9 | 71.6 | 69% | 88 | 29.8 | 0.0 | ||||||
| 06 | 18:15 | N 9 | 9.00 | Partly Cloudy | SCT230 | 83.5 | 71.6 | 68% | 89 | 29.79 | 0.0 | ||||||
| 06 | 17:55 | NE 7 | 9.00 | Mostly Cloudy | SCT034 BKN047 BKN240 | 84.4 | 72.1 | 67% | 90 | 29.78 | 0.0 | ||||||
| 06 | 17:35 | NE 9 | 9.00 | Mostly Cloudy | SCT033 BKN042 | 84.6 | 72.1 | 66% | 90 | 29.79 | 0.0 | ||||||
| 06 | 17:15 | NE 7 | 10.00 | Partly Cloudy | SCT037 SCT043 | 86.4 | 72.3 | 63% | 93 | 29.78 | 0.0 | ||||||
| 06 | 16:55 | E 7 | 10.00 | A Few Clouds | FEW031 | 85.5 | 72.3 | 65% | 92 | 29.79 | 0.0 | ||||||
| 06 | 16:35 | E 7 | 10.00 | Partly Cloudy | SCT029 | 85.8 | 72.7 | 65% | 93 | 29.79 | 0.0 | ||||||
| 06 | 16:15 | NE 8 | 10.00 | Partly Cloudy | SCT028 | 85.8 | 73 | 66% | 93 | 29.79 | 0.0 | ||||||
| 06 | 15:55 | NE 9 | 10.00 | A Few Clouds | FEW027 | 84.6 | 73 | 68% | 91 | 29.8 | 0.0 | ||||||
| 06 | 15:35 | NE 8 | 10.00 | Fair | CLR | 84 | 73.2 | 70% | 91 | 29.81 | 0.0 | ||||||
| 06 | 15:15 | E 9 | 10.00 | Mostly Cloudy | SCT020 BKN034 | 83.1 | 73 | 72% | 89 | 29.82 | 0.0 | ||||||
| 06 | 14:55 | NE 8 | 10.00 | Overcast | SCT020 BKN029 OVC038 | 81 | 73.4 | 78% | 86 | 29.83 | 0.0 | ||||||
| 06 | 14:35 | NE 10 | 10.00 | Overcast | BKN019 OVC028 | 80.1 | 73.2 | 80% | 84 | 29.83 | 0.0 | ||||||
| 06 | 14:15 | NE 10 | 10.00 | Overcast | OVC018 | 78.3 | 72.7 | 83% | 81 | 29.84 | 0.0 | ||||||
| 06 | 13:55 | NE 8 | 10.00 | Overcast | FEW017 OVC027 | 80.1 | 73.4 | 80% | 84 | 29.84 | 0.0 | ||||||
| 06 | 13:35 | E 8 | 10.00 | Overcast | OVC027 | 79.9 | 73.2 | 80% | 84 | 29.85 | 0.0 | ||||||
| 06 | 13:15 | NE 8 | 10.00 | Mostly Cloudy | FEW015 SCT028 BKN038 | 79.2 | 73 | 82% | 83 | 29.85 | 0.0 | ||||||
| 06 | 12:55 | E 9 | 10.00 | Overcast | FEW013 OVC039 | 81 | 74.3 | 81.1 | 74.8 | 80% | 86 | 29.85 | 0.0 | ||||
| 06 | 12:35 | E 10 | 9.00 | Overcast | OVC038 | 79.9 | 73.9 | 82% | 84 | 29.86 | 0.0 | ||||||
| 06 | 12:15 | E 9 | 10.00 | Overcast | FEW026 OVC033 | 80.2 | 73.2 | 79% | 85 | 29.85 | 0.0 | ||||||
| 06 | 11:55 | NE 8 | 9.00 | Overcast | OVC029 | 79.7 | 73.2 | 81% | 84 | 29.85 | 0.0 | ||||||
| 06 | 11:35 | NE 8 | 8.00 | Overcast | OVC028 | 79 | 73.4 | 83% | 82 | 29.84 | 0.0 | ||||||
| 06 | 11:15 | NE 6 | 9.00 | Overcast | OVC027 | 78.6 | 73.6 | 85% | 82 | 29.84 | 0.0 | ||||||
| 06 | 10:55 | NE 6 | 10.00 | Overcast | FEW012 OVC024 | 78.6 | 73.6 | 85% | 82 | 29.83 | 0.0 | ||||||
| 06 | 10:35 | E 6 | 10.00 | Overcast | SCT012 OVC025 | 78.3 | 73.4 | 85% | 81 | 29.82 | 0.0 | ||||||
| 06 | 10:15 | NE 3 | 9.00 | Overcast | FEW011 OVC025 | 78.3 | 73.4 | 85% | 81 | 29.82 | 0.0 | ||||||
| 06 | 09:55 | Calm | 8.00 | Overcast | FEW009 OVC023 | 77.4 | 73.6 | 88% | 79 | 29.82 | 0.0 | ||||||
| 06 | 09:35 | NE 3 | 7.00 | Overcast | SCT010 OVC022 | 77.2 | 73.6 | 89% | 79 | 29.81 | 0.0 | ||||||
| 06 | 09:15 | Calm | 8.00 | Overcast | BKN010 OVC019 | 76.3 | 73.4 | 91% | 77 | 29.81 | 0.0 | ||||||
| 06 | 08:55 | SE 5 | 8.00 | Overcast | OVC009 | 75.9 | 73.2 | 91% | 76 | 29.79 | 0.0 | ||||||
| 06 | 08:35 | SE 3 | 8.00 | Overcast | BKN010 OVC020 | 75.9 | 73.4 | 92% | 76 | 29.79 | 0.0 | ||||||
| 06 | 08:15 | SE 3 | 7.00 | Overcast | BKN011 OVC021 | 75.6 | 73 | 92% | 75 | 29.78 | 0.0 | ||||||
| 06 | 07:55 | Calm | 7.00 | Overcast | BKN011 OVC020 | 75.2 | 73 | 93% | 74 | 29.78 | 0.0 | ||||||
| 06 | 07:35 | Calm | 6.00 | Fog/Mist | BKN011 OVC020 | 75 | 72.9 | 93% | 74 | 29.77 | 0.0 | ||||||
| 06 | 07:15 | E 3 | 7.00 | Light Rain | BKN011 OVC020 | 75 | 72.9 | 93% | 74 | 29.77 | 0.0 | ||||||
| 06 | 06:55 | E 3 | 7.00 | Overcast | BKN011 OVC018 | 74.8 | 72.9 | 76.8 | 74.8 | 94% | 29.77 | 0.0 | |||||
| 06 | 06:35 | Calm | 8.00 | Overcast | SCT013 OVC017 | 74.8 | 72.7 | 93% | 29.77 | 0.0 | |||||||
| 06 | 06:15 | SE 6 | 9.00 | Overcast | OVC015 | 75 | 72.7 | 92% | 74 | 29.76 | 0.0 | ||||||
| 06 | 05:55 | SE 10 | 9.00 | Overcast | OVC010 | 75.2 | 72.7 | 92% | 74 | 29.77 | 0.0 | ||||||
| 06 | 05:35 | SE 7 | 8.00 | Overcast | OVC010 | 75.2 | 73 | 93% | 74 | 29.77 | 0.0 | ||||||
| 06 | 05:15 | SE 8 | 9.00 | Overcast | OVC011 | 75.6 | 72.9 | 91% | 75 | 29.76 | 0.0 | ||||||
| 06 | 04:55 | SE 7 | 10.00 | Overcast | OVC012 | 75.9 | 73 | 91% | 76 | 29.76 | 0.0 | ||||||
| 06 | 04:35 | SE 9 | 9.00 | Overcast | OVC012 | 75.9 | 73 | 91% | 76 | 29.76 | 0.0 | ||||||
| 06 | 04:15 | SE 9 | 9.00 | Overcast | OVC013 | 76.1 | 73 | 90% | 76 | 29.76 | 0.0 | ||||||
| 06 | 03:55 | SE 7 | 9.00 | Overcast | OVC012 | 76.3 | 73 | 90% | 77 | 29.76 | 0.0 | ||||||
| 06 | 03:35 | E 8 | 9.00 | Overcast | OVC012 | 76.5 | 73.2 | 90% | 77 | 29.76 | 0.0 | ||||||
| 06 | 03:15 | E 8 | 9.00 | Overcast | OVC012 | 76.6 | 73 | 89% | 77 | 29.75 | 0.0 | ||||||
| 06 | 02:55 | E 8 | 9.00 | Overcast | OVC013 | 76.6 | 73.2 | 89% | 77 | 29.76 | 0.0 | ||||||
| 06 | 02:35 | E 12 | 9.00 | Overcast | OVC013 | 76.8 | 73.4 | 89% | 78 | 29.76 | 0.0 | ||||||
| 06 | 02:15 | E 10 | 9.00 | Overcast | OVC013 | 76.3 | 73.4 | 91% | 77 | 29.76 | 0.0 | ||||||
| 06 | 01:55 | E 8 | 9.00 | Partly Cloudy | SCT015 | 75.9 | 73.2 | 91% | 76 | 29.76 | 0.0 | ||||||
| 06 | 01:35 | E 9 | 9.00 | Partly Cloudy | SCT016 | 76.1 | 73 | 90% | 76 | 29.75 | 0.0 | ||||||
| 06 | 01:15 | E 9 | 9.00 | Fair | CLR | 76.3 | 73 | 90% | 77 | 29.76 | 0.0 | ||||||
| 06 | 00:55 | E 8 | 10.00 | Fair | CLR | 76.8 | 73.2 | 88 | 76.8 | 89% | 78 | 29.76 | 0.0 | ||||
| 06 | 00:35 | E 10 | 9.00 | Fair | CLR | 77.2 | 73.4 | 88% | 79 | 29.76 | 0.0 | ||||||
| 06 | 00:15 | E 9 | 10.00 | Fair | CLR | 77.9 | 73.6 | 87% | 80 | 29.76 | 0.0 | ||||||
| 05 | 23:55 | E 10 G 18 | 10.00 | Fair | CLR | 78.6 | 73.6 | 85% | 82 | 29.75 | 0.0 | ||||||
| 05 | 23:35 | E 9 | 10.00 | Fair | CLR | 79 | 73.4 | 83% | 82 | 29.75 | 0.0 | ||||||
| 05 | 23:15 | E 10 | 9.00 | Fair | CLR | 79.3 | 73 | 81% | 83 | 29.75 | 0.0 | ||||||
| 05 | 22:55 | E 8 | 10.00 | Fair | CLR | 80.1 | 72.7 | 78% | 84 | 29.74 | 0.0 | ||||||
| 05 | 22:35 | E 10 | 10.00 | Fair | CLR | 80.4 | 72.3 | 76% | 85 | 29.73 | 0.0 | ||||||
| 05 | 22:15 | E 8 | 10.00 | Fair | CLR | 80.6 | 72.3 | 76% | 85 | 29.72 | 0.0 | ||||||
| 05 | 21:55 | E 7 | 10.00 | Fair | CLR | 80.1 | 72.5 | 78% | 84 | 29.71 | 0.0 | ||||||
| 05 | 21:35 | E 8 | 10.00 | Fair | CLR | 80.4 | 72.7 | 77% | 85 | 29.71 | 0.0 | ||||||
| 05 | 21:15 | E 8 | 10.00 | Fair | CLR | 80.6 | 72.7 | 77% | 85 | 29.71 | 0.0 | ||||||
| 05 | 20:55 | NE 7 | 10.00 | Fair | CLR | 81.7 | 72.7 | 74% | 87 | 29.7 | 0.0 | ||||||
| 05 | 20:35 | NE 7 | 10.00 | Fair | CLR | 82.2 | 72.7 | 73% | 88 | 29.69 | 0.0 | ||||||
| 05 | 20:15 | NE 5 | 10.00 | Fair | CLR | 83.5 | 72.9 | 70% | 90 | 29.68 | 0.0 | ||||||
| 05 | 19:55 | NE 7 | 10.00 | Fair | CLR | 85.6 | 72.7 | 65% | 92 | 29.67 | 0.0 | ||||||
| 05 | 19:35 | NE 8 | 10.00 | Fair | CLR | 86.7 | 72.9 | 63% | 94 | 29.67 | 0.0 | ||||||
| 05 | 19:15 | E 5 | 10.00 | Fair | CLR | 88 | 71.6 | 58% | 94 | 29.67 | 0.0 | ||||||
| 05 | 18:55 | E 5 | 10.00 | Fair | CLR | 88.5 | 71.8 | 90.3 | 80.8 | 58% | 95 | 29.67 | 0.0 | ||||
| 05 | 18:35 | E 6 | 10.00 | Fair | CLR | 89.4 | 71.2 | 55% | 96 | 29.67 | 0.0 | ||||||
| 05 | 18:15 | E 8 | 9.00 | Fair | CLR | 89.6 | 71.8 | 56% | 97 | 29.67 | 0.0 | ||||||
| 05 | 17:55 | Vrbl 6 | 10.00 | Fair | CLR | 90 | 72 | 56% | 97 | 29.67 | 0.0 | ||||||
| 05 | 17:35 | E 7 | 10.00 | Fair | CLR | 90.1 | 72 | 55% | 97 | 29.67 | 0.0 | ||||||
| 05 | 17:15 | SE 6 | 10.00 | A Few Clouds | FEW046 | 89.8 | 72.3 | 57% | 97 | 29.67 | 0.0 | ||||||
| 05 | 16:55 | SE 6 | 10.00 | A Few Clouds | FEW046 | 89.1 | 71.8 | 57% | 96 | 29.68 | 0.0 | ||||||
| 05 | 16:35 | E 7 | 10.00 | A Few Clouds | FEW044 | 88.7 | 71.6 | 57% | 95 | 29.69 | 0.0 | ||||||
| 05 | 16:15 | SE 6 | 10.00 | A Few Clouds | FEW380 | 88.2 | 72.3 | 60% | 95 | 29.7 | 0.0 | ||||||
| 05 | 15:55 | Vrbl 7 | 10.00 | A Few Clouds | FEW320 | 87.8 | 72.1 | 60% | 95 | 29.71 | 0.0 | ||||||
| 05 | 15:35 | S 5 | 10.00 | A Few Clouds | FEW320 | 87.1 | 72.1 | 61% | 94 | 29.72 | 0.0 | ||||||
| 05 | 15:15 | S 7 | 10.00 | A Few Clouds | FEW360 | 86.4 | 71.8 | 62% | 93 | 29.72 | 0.0 | ||||||
| 05 | 14:55 | S 7 | 10.00 | A Few Clouds | FEW310 | 85.8 | 71.6 | 63% | 92 | 29.74 | 0.0 | ||||||
| 05 | 14:35 | Calm | 10.00 | Partly Cloudy | FEW032 SCT370 | 84.7 | 71.6 | 65% | 90 | 29.74 | 0.0 | ||||||
| 05 | 14:15 | SE 3 | 10.00 | Partly Cloudy | FEW031 SCT310 SCT340 | 84 | 71.8 | 67% | 89 | 29.75 | 0.0 | ||||||
| 05 | 13:55 | E 5 | 10.00 | Partly Cloudy | SCT032 SCT290 | 83.1 | 71.1 | 67% | 88 | 29.76 | 0.0 | ||||||
| 05 | 13:35 | Vrbl 3 | 10.00 | Mostly Cloudy | SCT030 SCT230 BKN290 | 82 | 70.9 | 69% | 86 | 29.77 | 0.0 | ||||||
| 05 | 13:15 | N 5 | 10.00 | Mostly Cloudy | BKN026 | 83.1 | 70.5 | 66% | 88 | 29.77 | 0.0 | ||||||
| 05 | 12:55 | Vrbl 3 | 10.00 | Mostly Cloudy | BKN026 | 79.3 | 70.2 | 80.2 | 68.5 | 74% | 82 | 29.78 | 0.0 | ||||
| 05 | 12:35 | E 3 | 10.00 | Overcast | OVC023 | 80.1 | 70.3 | 72% | 83 | 29.79 | 0.0 | ||||||
| Date | Time (cdt) | Wind (mph) | Vis. (mi.) | Weather | Sky Cond. | Air | Dwpt | Max. | Min. | Relative Humidity | Wind Chill (°F) | Heat Index (°F) | altimeter (in) | sea level (mb) | 1 hr | 3 hr | 6 hr |
| 6 hour | |||||||||||||||||
| Temperature (ºF) | Pressure | Precipitation (in) | |||||||||||||||